| time (UTC) | temp F | wind direction | speed MPH | gust MPH | rain 1hr in | rain 24hr in | rain mn in | humidity % | barometer mb |
| 20260905202618 | 64 | 301 | 3.0 | 7.0 | 0.00 | 0.00 | 0.00 | 71 | 1016.9 |
| 20260905202118 | 64 | 330 | 3.0 | 7.0 | 0.00 | 0.00 | 0.00 | 70 | 1016.9 |
| 20260905201618 | 65 | 313 | 2.0 | 6.0 | 0.00 | 0.00 | 0.00 | 70 | 1016.9 |
| 20260905201118 | 64 | 355 | 2.0 | 6.0 | 0.00 | 0.00 | 0.00 | 71 | 1016.9 |
| 20260905200615 | 64 | 310 | 2.0 | 4.0 | 0.00 | 0.00 | 0.00 | 70 | 1016.8 |
| 20260905200113 | 64 | 42 | 2.0 | 4.0 | 0.00 | 0.00 | 0.00 | 72 | 1016.8 |
| 20260905195614 | 65 | 345 | 1.0 | 6.0 | 0.00 | 0.00 | 0.00 | 73 | 1016.8 |
| 20260905195113 | 65 | 348 | 2.0 | 6.0 | 0.00 | 0.00 | 0.00 | 75 | 1016.8 |
| 20260905194613 | 64 | 308 | 2.0 | 7.0 | 0.00 | 0.00 | 0.00 | 76 | 1016.9 |
| 20260905194119 | 62 | 308 | 3.0 | 7.0 | 0.00 | 0.00 | 0.00 | 79 | 1016.8 |
| 20260905193617 | 63 | 310 | 2.0 | 7.0 | 0.00 | 0.00 | 0.00 | 78 | 1016.8 |
| 20260905193116 | 63 | 314 | 2.0 | 7.0 | 0.00 | 0.00 | 0.00 | 78 | 1016.9 |
| 20260905192613 | 63 | 323 | 2.0 | 5.0 | 0.00 | 0.00 | 0.00 | 80 | 1016.8 |
| 20260905192112 | 63 | 318 | 2.0 | 5.0 | 0.00 | 0.00 | 0.00 | 78 | 1016.9 |
| 20260905191108 | 62 | 295 | 2.0 | 7.0 | 0.00 | 0.00 | 0.00 | 80 | 1017.0 |
| 20260905190608 | 63 | 314 | 2.0 | 5.0 | 0.00 | 0.00 | 0.00 | 81 | 1016.9 |
| 20260905190333 | 62 | 317 | 2.0 | 5.0 | 0.00 | 0.00 | 0.00 | 84 | 1017.0 |
| 20260905185606 | 61 | 320 | 1.0 | 4.0 | 0.00 | 0.00 | 0.00 | 83 | 1017.0 |
| 20260905185105 | 61 | 318 | 0.0 | 4.0 | 0.00 | 0.00 | 0.00 | 85 | 1017.0 |
| 20260905184608 | 61 | 313 | 1.0 | 4.0 | 0.00 | 0.00 | 0.00 | 86 | 1017.1 |
| 20260905184105 | 61 | 295 | 1.0 | 4.0 | 0.00 | 0.00 | 0.00 | 85 | 1017.2 |
| 20260905183605 | 61 | 332 | 1.0 | 4.0 | 0.00 | 0.00 | 0.00 | 85 | 1017.2 |
| 20260905183106 | 61 | 316 | 2.0 | 5.0 | 0.00 | 0.00 | 0.00 | 85 | 1017.2 |
| 20260905182827 | 61 | 309 | 2.0 | 5.0 | 0.00 | 0.00 | 0.00 | 87 | 1017.3 |
| 20260905182101 | 60 | 311 | 2.0 | 5.0 | 0.00 | 0.00 | 0.00 | 87 | 1017.2 |
| 20260905181601 | 61 | 28 | 2.0 | 7.0 | 0.00 | 0.00 | 0.00 | 88 | 1017.3 |
| 20260905181100 | 60 | 301 | 1.0 | 7.0 | 0.00 | 0.00 | 0.00 | 89 | 1017.4 |
| 20260905180601 | 61 | 342 | 1.0 | 3.0 | 0.00 | 0.00 | 0.00 | 89 | 1017.3 |
| 20260905180058 | 60 | 33 | 2.0 | 5.0 | 0.00 | 0.00 | 0.00 | 90 | 1017.3 |
| 20260905175552 | 59 | 333 | 2.0 | 5.0 | 0.00 | 0.00 | 0.00 | 91 | 1017.3 |
| 20260905175051 | 59 | 285 | 1.0 | 3.0 | 0.00 | 0.00 | 0.00 | 91 | 1017.2 |
| 20260905174550 | 59 | 242 | 1.0 | 3.0 | 0.00 | 0.00 | 0.00 | 92 | 1017.3 |
| 20260905174048 | 58 | 295 | 1.0 | 3.0 | 0.00 | 0.00 | 0.00 | 92 | 1017.2 |
| 20260905173546 | 58 | 295 | 0.0 | 3.0 | 0.00 | 0.00 | 0.00 | 92 | 1017.2 |
| 20260905173304 | 58 | 295 | 0.0 | 0.0 | 0.00 | 0.00 | 0.00 | 92 | 1017.1 |
| 20260905172542 | 58 | 295 | 0.0 | 2.0 | 0.00 | 0.00 | 0.00 | 92 | 1017.1 |
| 20260905172040 | 58 | 359 | 0.0 | 2.0 | 0.00 | 0.00 | 0.00 | 92 | 1017.1 |
| 20260905171537 | 58 | 68 | 0.0 | 0.0 | 0.00 | 0.00 | 0.00 | 91 | 1017.2 |
| 20260905171035 | 58 | 69 | 0.0 | 0.0 | 0.00 | 0.00 | 0.00 | 91 | 1017.1 |
| 20260905170535 | 58 | 69 | 0.0 | 3.0 | 0.00 | 0.00 | 0.00 | 91 | 1017.1 |
| 20260905170254 | 58 | 77 | 0.0 | 3.0 | 0.00 | 0.00 | 0.00 | 91 | 1017.2 |
| 20260905165534 | 58 | 108 | 1.0 | 5.0 | 0.00 | 0.00 | 0.00 | 90 | 1017.2 |
| 20260905165030 | 58 | 104 | 1.0 | 5.0 | 0.00 | 0.00 | 0.00 | 90 | 1017.2 |
| 20260905164529 | 58 | 54 | 1.0 | 3.0 | 0.00 | 0.00 | 0.00 | 90 | 1017.2 |
| 20260905164254 | 58 | 50 | 0.0 | 3.0 | 0.00 | 0.00 | 0.00 | 90 | 1017.2 |
| 20260905163528 | 58 | 74 | 0.0 | 3.0 | 0.00 | 0.00 | 0.00 | 90 | 1017.2 |
| 20260905163258 | 58 | 69 | 0.0 | 3.0 | 0.00 | 0.00 | 0.00 | 90 | 1017.2 |
| 20260905162753 | 58 | 26 | 1.0 | 3.0 | 0.00 | 0.00 | 0.00 | 90 | 1017.2 |
| 20260905162029 | 58 | 127 | 1.0 | 2.0 | 0.00 | 0.00 | 0.00 | 90 | 1017.0 |
| 20260905161532 | 58 | 127 | 0.0 | 2.0 | 0.00 | 0.00 | 0.00 | 90 | 1017.0 |
| 20260905161022 | 58 | 126 | 0.0 | 2.0 | 0.00 | 0.00 | 0.00 | 89 | 1017.1 |
| 20260905160740 | 58 | 107 | 0.0 | 1.0 | 0.00 | 0.00 | 0.00 | 90 | 1017.0 |
| 20260905160011 | 58 | 107 | 0.0 | 2.0 | 0.00 | 0.00 | 0.00 | 90 | 1016.9 |
| 20260905155506 | 57 | 108 | 0.0 | 2.0 | 0.00 | 0.00 | 0.00 | 89 | 1016.9 |
| 20260905155003 | 58 | 103 | 0.0 | 0.0 | 0.00 | 0.00 | 0.00 | 90 | 1016.8 |
| 20260905154503 | 57 | 103 | 0.0 | 2.0 | 0.00 | 0.00 | 0.00 | 90 | 1016.7 |
| 20260905154005 | 57 | 103 | 0.0 | 3.0 | 0.00 | 0.00 | 0.00 | 90 | 1016.7 |
| 20260905153507 | 57 | 103 | 1.0 | 3.0 | 0.00 | 0.00 | 0.00 | 90 | 1016.6 |
| 20260905153001 | 57 | 112 | 1.0 | 6.0 | 0.00 | 0.00 | 0.00 | 91 | 1016.6 |
| 20260905152501 | 57 | 112 | 2.0 | 6.0 | 0.00 | 0.00 | 0.00 | 91 | 1016.7 |
| 20260905152001 | 56 | 114 | 1.0 | 5.0 | 0.00 | 0.00 | 0.00 | 93 | 1016.6 |
| 20260905151502 | 56 | 132 | 0.0 | 2.0 | 0.00 | 0.00 | 0.00 | 93 | 1016.6 |
| 20260905151001 | 56 | 135 | 0.0 | 0.0 | 0.00 | 0.00 | 0.00 | 93 | 1016.6 |
| 20260905150502 | 56 | 155 | 0.0 | 0.0 | 0.00 | 0.00 | 0.00 | 93 | 1016.6 |
| 20260905150003 | 55 | 155 | 0.0 | 0.0 | 0.00 | 0.00 | 0.00 | 93 | 1016.7 |
| 20260905145502 | 55 | 155 | 0.0 | 0.0 | 0.00 | 0.00 | 0.00 | 93 | 1016.7 |
| 20260905145002 | 56 | 157 | 0.0 | 0.0 | 0.00 | 0.00 | 0.00 | 93 | 1016.8 |
| 20260905143501 | 56 | 157 | 0.0 | 0.0 | 0.00 | 0.00 | 0.00 | 93 | 1016.7 |
| 20260905143002 | 56 | 157 | 0.0 | 0.0 | 0.00 | 0.00 | 0.00 | 93 | 1016.7 |
| 20260905142500 | 56 | 157 | 0.0 | 0.0 | 0.00 | 0.00 | 0.00 | 93 | 1016.7 |
| 20260905141953 | 56 | 157 | 0.0 | 0.0 | 0.00 | 0.00 | 0.00 | 93 | 1016.6 |
| 20260905141708 | 56 | 157 | 0.0 | 0.0 | 0.00 | 0.00 | 0.00 | 93 | 1016.6 |
| 20260905140941 | 56 | 157 | 0.0 | 0.0 | 0.00 | 0.00 | 0.00 | 93 | 1016.6 |
| 20260905140439 | 56 | 157 | 0.0 | 0.0 | 0.00 | 0.00 | 0.00 | 93 | 1016.5 |
| 20260905135937 | 56 | 157 | 0.0 | 0.0 | 0.00 | 0.00 | 0.00 | 92 | 1016.5 |
| 20260905135437 | 56 | 157 | 0.0 | 0.0 | 0.00 | 0.00 | 0.00 | 93 | 1016.6 |
| 20260905134936 | 56 | 157 | 0.0 | 0.0 | 0.00 | 0.00 | 0.00 | 92 | 1016.4 |
| 20260905134659 | 56 | 157 | 0.0 | 0.0 | 0.00 | 0.00 | 0.00 | 92 | 1016.4 |
| 20260905133933 | 57 | 157 | 0.0 | 0.0 | 0.00 | 0.00 | 0.00 | 92 | 1016.3 |
| 20260905133202 | 57 | 157 | 0.0 | 0.0 | 0.00 | 0.00 | 0.00 | 92 | 1016.1 |
| 20260905132431 | 57 | 157 | 0.0 | 0.0 | 0.00 | 0.00 | 0.00 | 92 | 1016.1 |
| 20260905131932 | 57 | 157 | 0.0 | 0.0 | 0.00 | 0.00 | 0.00 | 92 | 1016.1 |
| 20260905131431 | 57 | 157 | 0.0 | 0.0 | 0.00 | 0.00 | 0.00 | 92 | 1016.1 |
| 20260905130931 | 58 | 157 | 0.0 | 0.0 | 0.00 | 0.00 | 0.00 | 92 | 1016.2 |
| 20260905130431 | 57 | 157 | 0.0 | 0.0 | 0.00 | 0.00 | 0.00 | 92 | 1016.1 |
| 20260905125931 | 57 | 157 | 0.0 | 0.0 | 0.00 | 0.00 | 0.00 | 92 | 1016.1 |
| 20260905125655 | 57 | 160 | 0.0 | 0.0 | 0.00 | 0.00 | 0.00 | 92 | 1016.2 |
| 20260905124933 | 57 | 173 | 0.0 | 0.0 | 0.00 | 0.00 | 0.00 | 92 | 1016.2 |
| 20260905124435 | 57 | 78 | 0.0 | 0.0 | 0.00 | 0.00 | 0.00 | 92 | 1016.2 |
| 20260905124151 | 57 | 64 | 0.0 | 0.0 | 0.00 | 0.00 | 0.00 | 92 | 1016.2 |
| 20260905123430 | 57 | 64 | 0.0 | 0.0 | 0.00 | 0.00 | 0.00 | 92 | 1016.2 |
| 20260905123155 | 57 | 64 | 0.0 | 0.0 | 0.00 | 0.00 | 0.00 | 92 | 1016.3 |
| 20260905122654 | 57 | 64 | 0.0 | 0.0 | 0.00 | 0.00 | 0.00 | 92 | 1016.1 |
| 20260905121657 | 57 | 62 | 0.0 | 0.0 | 0.00 | 0.00 | 0.00 | 92 | 1016.0 |
| 20260905120430 | 57 | 62 | 0.0 | 0.0 | 0.00 | 0.00 | 0.00 | 92 | 1016.0 |
| 20260905115929 | 57 | 62 | 0.0 | 0.0 | 0.00 | 0.00 | 0.00 | 92 | 1016.0 |
| 20260905115428 | 57 | 62 | 0.0 | 0.0 | 0.00 | 0.00 | 0.00 | 92 | 1016.0 |
| 20260905114932 | 57 | 62 | 0.0 | 0.0 | 0.00 | 0.00 | 0.00 | 92 | 1016.0 |
| 20260905113928 | 57 | 62 | 0.0 | 0.0 | 0.00 | 0.00 | 0.00 | 92 | 1016.0 |
| 20260905113429 | 57 | 62 | 0.0 | 0.0 | 0.00 | 0.00 | 0.00 | 92 | 1016.0 |
| 20260905112929 | 57 | 62 | 0.0 | 0.0 | 0.00 | 0.00 | 0.00 | 92 | 1016.0 |
| 20260905112428 | 57 | 62 | 0.0 | 0.0 | 0.00 | 0.00 | 0.00 | 92 | 1015.9 |
| 20260905111928 | 57 | 62 | 0.0 | 0.0 | 0.00 | 0.00 | 0.00 | 92 | 1015.9 |
| 20260905111428 | 57 | 62 | 0.0 | 0.0 | 0.00 | 0.00 | 0.00 | 92 | 1015.8 |
| 20260905110928 | 57 | 62 | 0.0 | 2.0 | 0.00 | 0.00 | 0.00 | 91 | 1015.7 |
| 20260905110426 | 57 | 62 | 1.0 | 2.0 | 0.00 | 0.00 | 0.00 | 91 | 1015.8 |
| 20260905105924 | 57 | 62 | 1.0 | 2.0 | 0.00 | 0.00 | 0.00 | 91 | 1015.6 |
| 20260905105423 | 57 | 62 | 2.0 | 3.0 | 0.00 | 0.00 | 0.00 | 91 | 1015.6 |
| 20260905104920 | 57 | 62 | 2.0 | 3.0 | 0.00 | 0.00 | 0.00 | 91 | 1015.7 |
| 20260905104419 | 57 | 62 | 1.0 | 2.0 | 0.00 | 0.00 | 0.00 | 91 | 1015.7 |
| 20260905103917 | 57 | 62 | 2.0 | 3.0 | 0.00 | 0.00 | 0.00 | 90 | 1015.8 |
| 20260905103415 | 57 | 62 | 2.0 | 3.0 | 0.00 | 0.00 | 0.00 | 90 | 1015.7 |
| 20260905102912 | 57 | 62 | 2.0 | 2.0 | 0.00 | 0.00 | 0.00 | 90 | 1015.7 |
| 20260905102411 | 57 | 62 | 2.0 | 2.0 | 0.00 | 0.00 | 0.00 | 90 | 1015.7 |
| 20260905101909 | 57 | 62 | 1.0 | 3.0 | 0.00 | 0.00 | 0.00 | 90 | 1015.8 |
| 20260905101406 | 57 | 62 | 1.0 | 3.0 | 0.00 | 0.00 | 0.00 | 90 | 1015.7 |
| 20260905100904 | 57 | 56 | 1.0 | 3.0 | 0.00 | 0.00 | 0.00 | 90 | 1015.8 |
| 20260905100402 | 57 | 56 | 2.0 | 4.0 | 0.00 | 0.00 | 0.00 | 90 | 1015.7 |
| 20260905095901 | 57 | 56 | 2.0 | 4.0 | 0.00 | 0.00 | 0.00 | 90 | 1015.7 |
| 20260905095630 | 58 | 56 | 1.0 | 3.0 | 0.00 | 0.00 | 0.00 | 89 | 1015.7 |
| 20260905094901 | 57 | 44 | 1.0 | 3.0 | 0.00 | 0.00 | 0.00 | 90 | 1015.7 |
| 20260905094402 | 58 | 44 | 1.0 | 3.0 | 0.00 | 0.00 | 0.00 | 89 | 1015.7 |
| 20260905093901 | 58 | 43 | 1.0 | 5.0 | 0.00 | 0.00 | 0.00 | 89 | 1015.7 |
| 20260905093359 | 58 | 101 | 1.0 | 5.0 | 0.00 | 0.00 | 0.00 | 89 | 1015.7 |
| 20260905092852 | 58 | 178 | 0.0 | 3.0 | 0.00 | 0.00 | 0.00 | 90 | 1015.8 |
| 20260905092346 | 58 | 195 | 0.0 | 0.0 | 0.00 | 0.00 | 0.00 | 89 | 1015.8 |
| 20260905091846 | 58 | 214 | 0.0 | 3.0 | 0.00 | 0.00 | 0.00 | 90 | 1015.8 |
| 20260905091344 | 58 | 122 | 1.0 | 3.0 | 0.00 | 0.00 | 0.00 | 89 | 1015.9 |
| 20260905090841 | 58 | 117 | 1.0 | 3.0 | 0.00 | 0.00 | 0.00 | 89 | 1015.8 |
| 20260905090340 | 58 | 116 | 1.0 | 3.0 | 0.00 | 0.00 | 0.00 | 90 | 1015.9 |
| 20260905090108 | 58 | 130 | 1.0 | 2.0 | 0.00 | 0.00 | 0.00 | 89 | 1015.8 |
| 20260905085336 | 58 | 131 | 1.0 | 3.0 | 0.00 | 0.00 | 0.00 | 89 | 1015.9 |
| 20260905084834 | 58 | 131 | 1.0 | 3.0 | 0.00 | 0.00 | 0.00 | 89 | 1015.8 |
| 20260905084332 | 58 | 130 | 0.0 | 3.0 | 0.00 | 0.00 | 0.00 | 89 | 1015.8 |
| 20260905083833 | 58 | 130 | 1.0 | 4.0 | 0.00 | 0.00 | 0.00 | 89 | 1015.7 |
| 20260905083334 | 58 | 130 | 2.0 | 4.0 | 0.00 | 0.00 | 0.00 | 88 | 1015.7 |
| 20260905082829 | 58 | 146 | 1.0 | 4.0 | 0.00 | 0.00 | 0.00 | 88 | 1015.8 |
| 20260905082330 | 58 | 152 | 1.0 | 3.0 | 0.00 | 0.00 | 0.00 | 88 | 1015.7 |
| 20260905081830 | 58 | 150 | 1.0 | 3.0 | 0.00 | 0.00 | 0.00 | 87 | 1015.7 |
| 20260905081329 | 58 | 152 | 1.0 | 3.0 | 0.00 | 0.00 | 0.00 | 88 | 1015.6 |
| 20260905080829 | 58 | 163 | 1.0 | 3.0 | 0.00 | 0.00 | 0.00 | 87 | 1015.5 |
| 20260905080331 | 58 | 104 | 2.0 | 3.0 | 0.00 | 0.00 | 0.00 | 87 | 1015.5 |
| 20260905075829 | 58 | 104 | 2.0 | 3.0 | 0.00 | 0.00 | 0.00 | 87 | 1015.6 |
| 20260905075330 | 58 | 104 | 2.0 | 5.0 | 0.00 | 0.00 | 0.00 | 87 | 1015.5 |
| 20260905074830 | 58 | 105 | 2.0 | 5.0 | 0.00 | 0.00 | 0.00 | 87 | 1015.4 |
| 20260905074328 | 58 | 102 | 1.0 | 5.0 | 0.00 | 0.00 | 0.00 | 86 | 1015.4 |
| 20260905073822 | 58 | 83 | 2.0 | 5.0 | 0.00 | 0.00 | 0.00 | 86 | 1015.5 |
| 20260905073316 | 58 | 83 | 2.0 | 5.0 | 0.00 | 0.00 | 0.00 | 86 | 1015.6 |
| 20260905072809 | 58 | 83 | 1.0 | 5.0 | 0.00 | 0.00 | 0.00 | 86 | 1015.5 |
| 20260905072542 | 58 | 66 | 1.0 | 4.0 | 0.00 | 0.00 | 0.00 | 85 | 1015.4 |
| 20260905071808 | 58 | 66 | 0.0 | 4.0 | 0.00 | 0.00 | 0.00 | 85 | 1015.4 |
| 20260905071306 | 58 | 85 | 0.0 | 0.0 | 0.00 | 0.00 | 0.00 | 85 | 1015.5 |
| 20260905070303 | 59 | 80 | 0.0 | 0.0 | 0.00 | 0.00 | 0.00 | 85 | 1015.4 |
| 20260905070035 | 58 | 106 | 0.0 | 2.0 | 0.00 | 0.00 | 0.00 | 85 | 1015.4 |
| 20260905065306 | 58 | 106 | 0.0 | 2.0 | 0.00 | 0.00 | 0.00 | 85 | 1015.4 |
| 20260905064802 | 58 | 106 | 1.0 | 2.0 | 0.00 | 0.00 | 0.00 | 85 | 1015.4 |
| 20260905064301 | 58 | 106 | 1.0 | 3.0 | 0.00 | 0.00 | 0.00 | 85 | 1015.4 |
| 20260905063801 | 58 | 110 | 0.0 | 3.0 | 0.00 | 0.00 | 0.00 | 86 | 1015.3 |
| 20260905063301 | 58 | 108 | 0.0 | 2.0 | 0.00 | 0.00 | 0.00 | 86 | 1015.3 |
| 20260905062802 | 59 | 108 | 0.0 | 2.0 | 0.00 | 0.00 | 0.00 | 86 | 1015.3 |
| 20260905062305 | 58 | 109 | 0.0 | 1.0 | 0.00 | 0.00 | 0.00 | 85 | 1015.4 |
| 20260905061801 | 59 | 108 | 0.0 | 2.0 | 0.00 | 0.00 | 0.00 | 85 | 1015.3 |
| 20260905061533 | 59 | 109 | 1.0 | 2.0 | 0.00 | 0.00 | 0.00 | 86 | 1015.4 |
| 20260905060301 | 58 | 109 | 2.0 | 3.0 | 0.00 | 0.00 | 0.00 | 85 | 1015.4 |
| 20260905055801 | 59 | 110 | 1.0 | 3.0 | 0.00 | 0.00 | 0.00 | 85 | 1015.4 |
| 20260905055257 | 59 | 109 | 1.0 | 3.0 | 0.00 | 0.00 | 0.00 | 85 | 1015.4 |
| 20260905054751 | 58 | 109 | 1.0 | 2.0 | 0.00 | 0.00 | 0.00 | 83 | 1015.3 |
| 20260905054252 | 58 | 109 | 1.0 | 3.0 | 0.00 | 0.00 | 0.00 | 83 | 1015.4 |
| 20260905053751 | 58 | 109 | 1.0 | 3.0 | 0.00 | 0.00 | 0.00 | 83 | 1015.2 |
| 20260905053251 | 59 | 109 | 1.0 | 3.0 | 0.00 | 0.00 | 0.00 | 83 | 1015.1 |
| 20260905052751 | 59 | 110 | 1.0 | 3.0 | 0.00 | 0.00 | 0.00 | 83 | 1015.3 |
| 20260905052527 | 59 | 110 | 2.0 | 3.0 | 0.00 | 0.00 | 0.00 | 82 | 1015.2 |
| 20260905052021 | 59 | 110 | 2.0 | 4.0 | 0.00 | 0.00 | 0.00 | 83 | 1015.2 |
| 20260905051247 | 59 | 110 | 2.0 | 4.0 | 0.00 | 0.00 | 0.00 | 83 | 1015.2 |
| 20260905050747 | 58 | 110 | 2.0 | 3.0 | 0.00 | 0.00 | 0.00 | 83 | 1015.2 |
| 20260905050247 | 58 | 110 | 2.0 | 3.0 | 0.00 | 0.00 | 0.00 | 83 | 1015.3 |
| 20260905045748 | 58 | 110 | 2.0 | 3.0 | 0.00 | 0.00 | 0.00 | 83 | 1015.2 |
| 20260905045519 | 58 | 110 | 2.0 | 4.0 | 0.00 | 0.00 | 0.00 | 82 | 1015.2 |
| 20260905044744 | 58 | 110 | 2.0 | 4.0 | 0.00 | 0.00 | 0.00 | 83 | 1015.2 |
| 20260905044245 | 58 | 110 | 2.0 | 3.0 | 0.00 | 0.00 | 0.00 | 83 | 1015.3 |
| 20260905043745 | 58 | 110 | 2.0 | 3.0 | 0.00 | 0.00 | 0.00 | 83 | 1015.2 |
| 20260905043246 | 58 | 110 | 2.0 | 3.0 | 0.00 | 0.00 | 0.00 | 83 | 1015.2 |
| 20260905042746 | 58 | 110 | 2.0 | 3.0 | 0.00 | 0.00 | 0.00 | 83 | 1015.2 |
| 20260905042245 | 58 | 110 | 2.0 | 4.0 | 0.00 | 0.00 | 0.00 | 82 | 1015.2 |
| 20260905041745 | 58 | 110 | 2.0 | 4.0 | 0.00 | 0.00 | 0.00 | 83 | 1015.1 |
| 20260905041245 | 58 | 110 | 2.0 | 3.0 | 0.00 | 0.00 | 0.00 | 84 | 1015.2 |
| 20260905041017 | 58 | 110 | 1.0 | 3.0 | 0.00 | 0.00 | 0.00 | 85 | 1015.3 |
| 20260905040245 | 58 | 108 | 1.0 | 3.0 | 0.00 | 0.00 | 0.00 | 85 | 1015.3 |
| 20260905035743 | 58 | 108 | 1.0 | 4.0 | 0.00 | 0.00 | 0.00 | 85 | 1015.2 |
| 20260905035518 | 58 | 108 | 2.0 | 4.0 | 0.00 | 0.00 | 0.00 | 85 | 1015.2 |
| 20260905034243 | 58 | 108 | 2.0 | 4.0 | 0.00 | 0.00 | 0.00 | 85 | 1015.1 |
| 20260905034014 | 57 | 108 | 2.0 | 4.0 | 0.00 | 0.00 | 0.00 | 84 | 1015.1 |
| 20260905033512 | 58 | 108 | 2.0 | 3.0 | 0.00 | 0.00 | 0.00 | 83 | 1015.0 |
| 20260905032744 | 58 | 108 | 1.0 | 3.0 | 0.00 | 0.00 | 0.00 | 83 | 1014.9 |
| 20260905032242 | 58 | 108 | 1.0 | 2.0 | 0.00 | 0.00 | 0.00 | 83 | 1014.9 |
| 20260905031742 | 58 | 108 | 1.0 | 2.0 | 0.00 | 0.00 | 0.00 | 83 | 1014.8 |
| 20260905031243 | 58 | 108 | 1.0 | 2.0 | 0.00 | 0.00 | 0.00 | 82 | 1014.7 |
| 20260905030742 | 58 | 108 | 1.0 | 3.0 | 0.00 | 0.00 | 0.00 | 82 | 1014.7 |
| 20260905030242 | 58 | 108 | 1.0 | 3.0 | 0.00 | 0.00 | 0.00 | 82 | 1014.7 |
| 20260905025743 | 58 | 108 | 2.0 | 4.0 | 0.00 | 0.00 | 0.00 | 82 | 1014.6 |
| 20260905025506 | 58 | 108 | 2.0 | 4.0 | 0.00 | 0.00 | 0.00 | 81 | 1014.6 |
| 20260905024740 | 59 | 108 | 2.0 | 5.0 | 0.00 | 0.00 | 0.00 | 81 | 1014.6 |
| 20260905024506 | 58 | 112 | 2.0 | 5.0 | 0.00 | 0.00 | 0.00 | 80 | 1014.6 |
| 20260905023741 | 59 | 95 | 2.0 | 4.0 | 0.00 | 0.00 | 0.00 | 80 | 1014.6 |
| 20260905023242 | 59 | 95 | 2.0 | 5.0 | 0.00 | 0.00 | 0.00 | 80 | 1014.7 |
| 20260905022737 | 59 | 95 | 2.0 | 5.0 | 0.00 | 0.00 | 0.00 | 80 | 1014.6 |
| 20260905022234 | 59 | 96 | 1.0 | 4.0 | 0.00 | 0.00 | 0.00 | 80 | 1014.7 |
| 20260905022000 | 59 | 97 | 2.0 | 4.0 | 0.00 | 0.00 | 0.00 | 79 | 1014.7 |
| 20260905021233 | 60 | 97 | 2.0 | 4.0 | 0.00 | 0.00 | 0.00 | 79 | 1014.6 |
| 20260905020733 | 60 | 97 | 1.0 | 4.0 | 0.00 | 0.00 | 0.00 | 79 | 1014.6 |
| 20260905020230 | 60 | 97 | 1.0 | 4.0 | 0.00 | 0.00 | 0.00 | 79 | 1014.6 |
| 20260905015730 | 60 | 97 | 0.0 | 4.0 | 0.00 | 0.00 | 0.00 | 78 | 1014.5 |
| 20260905015229 | 60 | 97 | 0.0 | 1.0 | 0.00 | 0.00 | 0.00 | 77 | 1014.3 |
| 20260905014729 | 60 | 97 | 1.0 | 4.0 | 0.00 | 0.00 | 0.00 | 78 | 1014.3 |
| 20260905014229 | 61 | 97 | 1.0 | 4.0 | 0.00 | 0.00 | 0.00 | 79 | 1014.4 |
| 20260905013956 | 61 | 93 | 1.0 | 4.0 | 0.00 | 0.00 | 0.00 | 79 | 1014.3 |
| 20260905013229 | 60 | 99 | 0.0 | 3.0 | 0.00 | 0.00 | 0.00 | 79 | 1014.4 |
| 20260905012730 | 61 | 105 | 0.0 | 3.0 | 0.00 | 0.00 | 0.00 | 79 | 1014.4 |
| 20260905012458 | 60 | 105 | 0.0 | 4.0 | 0.00 | 0.00 | 0.00 | 79 | 1014.4 |
| 20260905011952 | 60 | 105 | 0.0 | 4.0 | 0.00 | 0.00 | 0.00 | 80 | 1014.4 |
| 20260905011228 | 60 | 351 | 1.0 | 3.0 | 0.00 | 0.00 | 0.00 | 81 | 1014.4 |
| 20260905010729 | 60 | 352 | 1.0 | 3.0 | 0.00 | 0.00 | 0.00 | 81 | 1014.4 |
| 20260905010452 | 61 | 60 | 1.0 | 3.0 | 0.00 | 0.00 | 0.00 | 81 | 1014.5 |
| 20260905005729 | 61 | 68 | 1.0 | 3.0 | 0.00 | 0.00 | 0.00 | 80 | 1014.4 |
| 20260905005228 | 61 | 67 | 1.0 | 4.0 | 0.00 | 0.00 | 0.00 | 80 | 1014.3 |
| 20260905004957 | 61 | 63 | 1.0 | 5.0 | 0.00 | 0.00 | 0.00 | 80 | 1014.3 |
| 20260905004229 | 61 | 87 | 1.0 | 5.0 | 0.00 | 0.00 | 0.00 | 80 | 1014.2 |
| 20260905003729 | 61 | 82 | 2.0 | 5.0 | 0.00 | 0.00 | 0.00 | 80 | 1014.1 |
| 20260905003456 | 61 | 68 | 2.0 | 5.0 | 0.00 | 0.00 | 0.00 | 81 | 1014.1 |
| 20260905002732 | 61 | 347 | 2.0 | 4.0 | 0.00 | 0.00 | 0.00 | 81 | 1014.0 |
| 20260905002232 | 61 | 47 | 1.0 | 5.0 | 0.00 | 0.00 | 0.00 | 79 | 1014.1 |
| 20260905001729 | 62 | 53 | 1.0 | 5.0 | 0.00 | 0.00 | 0.00 | 78 | 1014.0 |
| 20260905001229 | 62 | 100 | 1.0 | 4.0 | 0.00 | 0.00 | 0.00 | 78 | 1014.0 |
| 20260905000951 | 62 | 70 | 1.0 | 4.0 | 0.00 | 0.00 | 0.00 | 76 | 1013.9 |
| 20260905000457 | 62 | 330 | 1.0 | 4.0 | 0.00 | 0.00 | 0.00 | 77 | 1013.9 |
| 20260904235722 | 62 | 92 | 1.0 | 4.0 | 0.00 | 0.00 | 0.00 | 76 | 1013.8 |
| 20260904235441 | 62 | 280 | 1.0 | 4.0 | 0.00 | 0.00 | 0.00 | 75 | 1013.8 |
| 20260904234710 | 62 | 275 | 1.0 | 4.0 | 0.00 | 0.00 | 0.00 | 77 | 1013.8 |
| 20260904234210 | 62 | 285 | 1.0 | 4.0 | 0.00 | 0.00 | 0.00 | 77 | 1013.7 |
| 20260904233708 | 62 | 281 | 1.0 | 3.0 | 0.00 | 0.00 | 0.00 | 76 | 1013.7 |
| 20260904233433 | 62 | 222 | 1.0 | 3.0 | 0.00 | 0.00 | 0.00 | 76 | 1013.6 |
| 20260904232708 | 62 | 285 | 1.0 | 3.0 | 0.00 | 0.00 | 0.00 | 79 | 1013.8 |
| 20260904232206 | 61 | 295 | 2.0 | 5.0 | 0.00 | 0.00 | 0.00 | 79 | 1013.8 |
| 20260904231704 | 61 | 295 | 2.0 | 5.0 | 0.00 | 0.00 | 0.00 | 80 | 1013.7 |
| 20260904231201 | 61 | 301 | 1.0 | 4.0 | 0.00 | 0.00 | 0.00 | 79 | 1013.7 |
| 20260904230700 | 61 | 23 | 2.0 | 4.0 | 0.00 | 0.00 | 0.00 | 78 | 1013.7 |
| 20260904230202 | 62 | 116 | 2.0 | 4.0 | 0.00 | 0.00 | 0.00 | 80 | 1013.8 |
| 20260904225701 | 62 | 25 | 1.0 | 3.0 | 0.00 | 0.00 | 0.00 | 81 | 1013.8 |
| 20260904225201 | 62 | 31 | 1.0 | 3.0 | 0.00 | 0.00 | 0.00 | 81 | 1013.8 |
| 20260904224701 | 61 | 315 | 1.0 | 4.0 | 0.00 | 0.00 | 0.00 | 81 | 1013.8 |
| 20260904224201 | 62 | 317 | 2.0 | 4.0 | 0.00 | 0.00 | 0.00 | 81 | 1013.8 |
| 20260904223700 | 62 | 314 | 1.0 | 3.0 | 0.00 | 0.00 | 0.00 | 81 | 1013.9 |
| 20260904223201 | 62 | 312 | 1.0 | 4.0 | 0.00 | 0.00 | 0.00 | 81 | 1013.8 |
| 20260904222701 | 61 | 312 | 1.0 | 4.0 | 0.00 | 0.00 | 0.00 | 82 | 1013.8 |
| 20260904222202 | 61 | 324 | 1.0 | 4.0 | 0.00 | 0.00 | 0.00 | 82 | 1013.8 |
| 20260904221701 | 60 | 322 | 1.0 | 4.0 | 0.00 | 0.00 | 0.00 | 83 | 1013.8 |
| 20260904221157 | 60 | 320 | 1.0 | 3.0 | 0.00 | 0.00 | 0.00 | 83 | 1013.9 |
| 20260904220651 | 61 | 26 | 1.0 | 3.0 | 0.00 | 0.00 | 0.00 | 82 | 1013.9 |
| 20260904220151 | 61 | 245 | 1.0 | 3.0 | 0.00 | 0.00 | 0.00 | 82 | 1013.9 |
| 20260904215650 | 61 | 305 | 1.0 | 3.0 | 0.00 | 0.00 | 0.00 | 82 | 1013.9 |
| 20260904215148 | 61 | 295 | 1.0 | 3.0 | 0.00 | 0.00 | 0.00 | 82 | 1013.9 |
| 20260904214909 | 62 | 295 | 1.0 | 5.0 | 0.00 | 0.00 | 0.00 | 81 | 1013.9 |
| 20260904214143 | 62 | 285 | 2.0 | 6.0 | 0.00 | 0.00 | 0.00 | 81 | 1013.9 |
| 20260904213642 | 62 | 318 | 2.0 | 7.0 | 0.00 | 0.00 | 0.00 | 81 | 1013.8 |
| 20260904213142 | 62 | 290 | 2.0 | 7.0 | 0.00 | 0.00 | 0.00 | 79 | 1013.8 |
| 20260904212641 | 62 | 305 | 2.0 | 7.0 | 0.00 | 0.00 | 0.00 | 79 | 1013.9 |
| 20260904212405 | 63 | 281 | 2.0 | 5.0 | 0.00 | 0.00 | 0.00 | 78 | 1013.8 |
| 20260904211911 | 62 | 316 | 2.0 | 4.0 | 0.00 | 0.00 | 0.00 | 78 | 1013.7 |
| 20260904211137 | 63 | 345 | 2.0 | 6.0 | 0.00 | 0.00 | 0.00 | 77 | 1013.8 |
| 20260904210638 | 63 | 37 | 2.0 | 6.0 | 0.00 | 0.00 | 0.00 | 77 | 1013.8 |
| 20260904210138 | 63 | 290 | 3.0 | 7.0 | 0.00 | 0.00 | 0.00 | 78 | 1013.7 |
| 20260904205638 | 63 | 309 | 3.0 | 7.0 | 0.00 | 0.00 | 0.00 | 78 | 1013.6 |
| 20260904205136 | 63 | 313 | 2.0 | 5.0 | 0.00 | 0.00 | 0.00 | 78 | 1013.6 |
| 20260904204631 | 61 | 306 | 2.0 | 5.0 | 0.00 | 0.00 | 0.00 | 82 | 1013.7 |
| 20260904204400 | 61 | 312 | 2.0 | 5.0 | 0.00 | 0.00 | 0.00 | 81 | 1013.6 |
| 20260904203900 | 61 | 295 | 2.0 | 4.0 | 0.00 | 0.00 | 0.00 | 81 | 1013.5 |
| 20260904203131 | 61 | 303 | 2.0 | 7.0 | 0.00 | 0.00 | 0.00 | 80 | 1013.4 |